FENGYUN 1C DEB, 31854

Orbit data source: Space-Track

FENGYUN 1C DEB, 31854 is space debris in SSO originally from a launch on Mon, 10 May 1999 UTC launched from the Taiyaun Space Center, China (TSC). Fengyun 1C debris stems from the Chinese weather satellite Fengyun-1C, which was intentionally destroyed by a Chinese anti-satellite missile in 2007. This event dramatically increased the amount of space debris, with thousands of trackable fragments posing hazards to satellites and human spaceflight. The Fengyun 1C debris cloud has become a focal point in discussions about space sustainability and the need for international regulations to prevent the creation of new debris.

Loading next visibility...
Identifier
31854, 1999-025CJU
Orbit
SSO
Country
Flag of CNCN / PRC
Related business
Manufacturer
Unknown
Mission
Spacecraft
Bus & Motor
Unknown
Mass
Unknown
Launch date (UTC)
1999-05-10 (27 years ago)
Launch vehicle
Unknown
Launch site
Taiyaun Space Center, China (TSC)
Object type
Payload
Rocket body
Debris
Shape & HBR
Unknown shape, 0.1 m
Radar Cross Section
Medium (>0.1 m² and <1 m²)

Expand to show TLE details & history
Last TLE update: 10 hours ago

TLE from 10 hours ago
0 FENGYUN 1C DEB
1 31854U 99025CJU 26257.25454584  .00000050  00000-0  57945-4 0  9994
2 31854  98.8543 257.9980 0073442  92.1770 268.7809 14.03381110731368
Epoch: 2026-09-14T06:06Z
TLE epoch observation values (Epoch: 2026-09-14T06:06:32.760Z)
Latitude
-0°
Longitude
173.12402°
Altitude
886.524 km
Speed
7.408 km/s
True Right ascension
17h 11m 59s
True Declination
0° 00' 00"
Sunlit
Object was in daylight at epoch
Visualization orbit readout
Latitude
Unknown
Longitude
Unknown
Altitude
Unknown
Speed
Unknown
Apparent Right ascension
Unknown
Apparent Declination
Unknown
Sunlit
N/A
Visualization observer readout
Local Sidereal Time
08:33:31
Azimuth
Unknown
Elevation
Unknown
Doppler factor
Unknown
Orbital elements
Apogee altitude
932.598 km
Perigee altitude
825.998 km
Semi-major axis
7,257.435 km
Eccentricity
0.00734
Inclination
98.8543°
RAAN
257.998°
Arg. of periapsis
92.177°
True anomaly
267.9397°
Mean anomaly
268.7809°
Eccentric anomaly
268.36028°
Mean motion
3.5105 °/min
Orbital period
102.55 mins
BSTAR
0.000057945
Loading maneuver chart data...
Computing Atmospheric mass density...
Loading historical data...
Loading historical data...
Loading historical data...
Loading historical data...
Loading historical data...
Loading historical data...
Loading historical data...

Documentation

Showing up to 5 results
|